Terminal Aerodrome Forecast
Issued by NWS Louisville, KY

Home | Current Version | Previous Version | Text Only | Print | Product List | Glossary Off
Versions: 1 2 3 4 5 6 7 8 9 10 11 12

000
FTUS43 KLMK 060500
TAFLEX
TAF
KLEX 060520Z 0606/0706 17003KT P6SM FEW100
      TEMPO 0610/0612 5SM BR
     FM061400 12004KT P6SM SCT050
     FM070200 VRB03KT P6SM FEW050 SCT100=

USA.gov is the U.S. government's official web portal to all federal, state and local government web resources and services.